Location: Santa Maria di Sala
(45.5070°N, 12.0300°E)
Time: 07:38:54
(UTC+02:00)

STRAND 1 - Pass Details

Date: 26 February 2024
Orbit: 764 x 779 km, 98.4° (Epoch: 16 April)

Event Time Altitude Azimuth Distance (km) Brightness Sun altitude
Rises 18:48:56 0° 13° (NNE) 3,267 ? -10.4°
Reaches altitude 10° 18:51:15 10° 14° (NNE) 2,333 ? -10.8°
Maximum altitude 18:56:25 87° 102° (ESE) 780 ? -11.7°
Drops below altitude 10° 19:01:31 10° 194° (SSW) 2,306 ? -12.6°
Sets 19:03:49 0° 195° (SSW) 3,226 ? -13.0°
